Simultaneous Nadir Overpasses (SNOs) Predictions

Prediction of SNOs between AQUA and METOP-A Satellite Orbit:

Table of predicted SNOs for the next 14.0 days since TLE Epoch: 1/14/2017
Index Date (AQUA) Time (AQUA) Lat,Lon (AQUA) SZA (AQUA ) Date (METOP-A) Time (METOP-A) Lat,Lon (METOP-A) SZA (METOP-A ) Distance(km) Time Diff (sec)
1 01/16/2017 15:36:44 -73.80, 120.00 85.33 01/16/2017 15:36:12 -73.82, 119.98 85.30 2.11 32
2 01/16/2017 16:26:13 73.87, -72.52 94.75 01/16/2017 16:26:51 73.86, -72.58 94.74 2.14 38
3 01/19/2017 11:11:02 -73.84,-173.64 85.85 01/19/2017 11:10:34 -73.82,-173.62 85.87 2.50 28
4 01/19/2017 12:00:31 73.91, -6.17 94.23 01/19/2017 12:01:12 73.91, -6.06 94.22 3.57 41
5 01/22/2017 06:45:18 -73.83,-107.19 86.48 01/22/2017 06:44:55 -73.81,-107.22 86.49 2.08 23
6 01/22/2017 07:34:47 73.91, 60.28 93.60 01/22/2017 07:35:33 73.91, 60.34 93.59 2.08 46
7 01/25/2017 01:29:55 73.07, 153.19 92.06 01/25/2017 01:28:50 73.07, 150.19 92.20 97.28 65
8 01/25/2017 02:19:35 -73.83, -40.76 87.14 01/25/2017 02:19:17 -73.81, -40.82 87.16 3.27 18
9 01/25/2017 03:09:04 73.91, 126.71 92.94 01/25/2017 03:09:55 73.90, 126.74 92.92 1.05 51
10 01/27/2017 21:04:16 73.29,-140.82 91.58 01/27/2017 21:03:08 73.26,-142.98 91.66 69.38 68
11 01/27/2017 21:53:52 -73.83, 25.67 87.85 01/27/2017 21:53:38 -73.85, 25.69 87.83 1.49 14
12 01/27/2017 22:43:21 73.91,-166.87 92.23 01/27/2017 22:44:17 73.89,-166.87 92.20 2.46 56




NCC Satellite Simultaneous Nadir Overpasses (SNOs) Prediction Service
